This is the latest recevied weather packets stored in our database for station/object N9XRG. If no packets are shown the sender has not sent any weather packets the latest 10 day(s).
| Time | Temp. | Humidity | Pressure | Rain* | Wind** | Luminosity | Snow |
|---|---|---|---|---|---|---|---|
| 1778116048 | 10° C | 61% | 1013.8 hPa | 0 mm | - | 0 W/m² | - |
| 1778115744 | 10° C | 60% | 1013.6 hPa | 0 mm | - | 0 W/m² | - |
| 1778115442 | 10° C | 60% | 1013.6 hPa | 0 mm | - | 0 W/m² | - |
| 1778115138 | 10.56° C | 62% | 1013.3 hPa | 0 mm | - | 1 W/m² | - |
| 1778114834 | 10.56° C | 58% | 1013.3 hPa | 0 mm | - | 2 W/m² | - |
| 1778114533 | 10.56° C | 58% | 1013.5 hPa | 0 mm | - | 3 W/m² | - |
| 1778114228 | 11.11° C | 60% | 1013.2 hPa | 0 mm | - | 5 W/m² | - |
| 1778113923 | 11.11° C | 59% | 1013.1 hPa | 0 mm | - | 7 W/m² | - |
| 1778113620 | 11.11° C | 57% | 1013.1 hPa | 0 mm | - | 10 W/m² | - |
| 1778113316 | 11.67° C | 57% | 1012.9 hPa | 0 mm | - | 14 W/m² | - |
| 1778113012 | 11.67° C | 52% | 1013.3 hPa | 0 mm | - | 16 W/m² | - |
| 1778112710 | 11.67° C | 51% | 1013.1 hPa | 0 mm | - | 19 W/m² | - |
| 1778112406 | 11.67° C | 52% | 1013.1 hPa | 0 mm | - | 23 W/m² | - |
| 1778112102 | 12.22° C | 50% | 1013.2 hPa | 0 mm | - | 21 W/m² | - |
| 1778111799 | 12.22° C | 50% | 1013.2 hPa | 0 mm | - | 25 W/m² | - |
| 1778111500 | 12.78° C | 47% | 1013.1 hPa | 0 mm | - | 28 W/m² | - |
| 1778111197 | 12.78° C | 48% | 1013.1 hPa | 0 mm | - | 45 W/m² | - |
| 1778110894 | 12.78° C | 46% | 1012.9 hPa | 0 mm | - | 36 W/m² | - |
| 1778110591 | 12.78° C | 45% | 1013.3 hPa | 0 mm | - | 48 W/m² | - |
| 1778110288 | 12.78° C | 48% | 1013.3 hPa | 0 mm | - | 57 W/m² | - |
| 1778109984 | 12.78° C | 44% | 1013.2 hPa | 0 mm | - | 63 W/m² | - |
| 1778109680 | 13.33° C | 46% | 1013.3 hPa | 0 mm | - | 63 W/m² | - |
| 1778109377 | 13.33° C | 48% | 1013.3 hPa | 0 mm | - | 71 W/m² | - |
| 1778109075 | 13.33° C | 44% | 1013.3 hPa | 0 mm | - | 81 W/m² | - |
| 1778108772 | 13.33° C | 44% | 1013.1 hPa | 0 mm | - | 93 W/m² | - |
* Rain latest hour (hover to see other rain measurements)
** Current wind speed in m/s (hover to see current wind gust speed)